NPT44 EGGD-EGCC

Flight info

Callsign NPT44
Flight time 0h 40m
Altitude 17000
Route BCN1Z MONTY WAL MIRSI
Aircraft CRJ7/M-V/N

Departure

Time 2026-05-04 14:36
Airport Bristol Airport (EGGD)

Arrival

Time 2026-05-04 15:16
Airport Manchester Airport (EGCC)
Time Latitude Longitude Altitude Speed Heading
2026-05-04 14:29 51.38548 -2.70801 629 ft 0 kts 267°
2026-05-04 14:29 51.38548 -2.70802 629 ft 0 kts 267°
2026-05-04 14:31 51.38548 -2.70803 629 ft 0 kts 267°
2026-05-04 14:32 51.38548 -2.70804 629 ft 0 kts 267°
2026-05-04 14:33 51.38547 -2.70811 629 ft 7 kts 257°
2026-05-04 14:33 51.38477 -2.71019 629 ft 36 kts 261°
2026-05-04 14:33 51.38460 -2.71444 629 ft 42 kts 266°
2026-05-04 14:34 51.38444 -2.71885 629 ft 37 kts 266°
2026-05-04 14:34 51.38426 -2.72340 629 ft 40 kts 266°
2026-05-04 14:34 51.38407 -2.72767 629 ft 39 kts 266°
2026-05-04 14:34 51.38389 -2.73223 629 ft 35 kts 257°
2026-05-04 14:35 51.38262 -2.73315 629 ft 29 kts 162°
2026-05-04 14:35 51.38217 -2.73230 629 ft 0 kts 86°
2026-05-04 14:35 51.38224 -2.73035 629 ft 49 kts 86°
2026-05-04 14:35 51.38264 -2.72036 630 ft 128 kts 86°
2026-05-04 14:36 51.38326 -2.70352 836 ft 161 kts 86°
2026-05-04 14:36 51.38384 -2.68538 1315 ft 167 kts 87°
2026-05-04 14:36 51.38442 -2.66603 1774 ft 182 kts 87°
2026-05-04 14:36 51.38611 -2.64531 2232 ft 193 kts 70°
2026-05-04 14:37 51.39531 -2.62976 2691 ft 204 kts 26°
2026-05-04 14:37 51.40972 -2.62801 3170 ft 217 kts 345°
2026-05-04 14:37 51.42256 -2.64145 3681 ft 228 kts 316°
2026-05-04 14:37 51.43298 -2.66139 4157 ft 240 kts 307°
2026-05-04 14:38 51.44295 -2.68364 4622 ft 246 kts 306°
2026-05-04 14:38 51.45290 -2.70626 5081 ft 249 kts 306°
2026-05-04 14:38 51.45975 -2.72157 5385 ft 251 kts 306°
2026-05-04 14:38 51.47038 -2.74478 5821 ft 256 kts 306°
2026-05-04 14:39 51.48120 -2.76775 6272 ft 253 kts 306°
2026-05-04 14:39 51.48960 -2.78525 6624 ft 253 kts 305°
2026-05-04 14:39 51.50104 -2.80887 6884 ft 260 kts 305°
2026-05-04 14:40 51.52328 -2.85423 6992 ft 260 kts 306°
2026-05-04 14:40 51.53461 -2.87713 6997 ft 259 kts 306°
2026-05-04 14:40 51.54617 -2.90044 6999 ft 258 kts 306°
2026-05-04 14:40 51.55724 -2.92272 6999 ft 257 kts 306°
2026-05-04 14:41 51.56854 -2.94546 7000 ft 257 kts 306°
2026-05-04 14:41 51.57705 -2.96259 7000 ft 256 kts 306°
2026-05-04 14:41 51.59931 -3.00741 7000 ft 256 kts 306°
2026-05-04 14:42 51.62109 -3.05133 7000 ft 256 kts 306°
2026-05-04 14:42 51.63220 -3.07375 7000 ft 256 kts 306°
2026-05-04 14:42 51.63972 -3.08893 7000 ft 256 kts 306°
2026-05-04 14:43 51.65338 -3.11654 7000 ft 256 kts 306°
2026-05-04 14:43 51.66448 -3.13901 7000 ft 256 kts 306°
2026-05-04 14:43 51.67560 -3.16152 7000 ft 256 kts 306°
2026-05-04 14:43 51.68670 -3.18404 7000 ft 256 kts 306°
2026-05-04 14:44 51.69793 -3.20683 7000 ft 256 kts 306°
2026-05-04 14:44 51.70904 -3.22938 7000 ft 256 kts 306°
2026-05-04 14:44 51.72009 -3.25188 7000 ft 256 kts 306°
2026-05-04 14:44 51.73296 -3.27134 7188 ft 253 kts 328°
2026-05-04 14:45 51.75080 -3.27690 7672 ft 282 kts 356°
2026-05-04 14:45 51.77186 -3.27378 8153 ft 326 kts
2026-05-04 14:45 51.78731 -3.27013 8560 ft 341 kts
2026-05-04 14:45 51.81108 -3.26422 9164 ft 349 kts
2026-05-04 14:46 51.83571 -3.25844 9781 ft 359 kts
2026-05-04 14:46 51.86074 -3.25323 10386 ft 364 kts
2026-05-04 14:46 51.88587 -3.24867 10984 ft 369 kts
2026-05-04 14:46 51.91185 -3.24457 11594 ft 373 kts
2026-05-04 14:47 51.93789 -3.24097 12198 ft 377 kts
2026-05-04 14:47 51.96413 -3.23777 12800 ft 380 kts
2026-05-04 14:47 51.98949 -3.23500 13376 ft 383 kts
2026-05-04 14:47 52.01631 -3.23232 13980 ft 386 kts
2026-05-04 14:48 52.04329 -3.22984 14582 ft 390 kts 360°
2026-05-04 14:48 52.07044 -3.22750 15182 ft 393 kts 359°
2026-05-04 14:48 52.09257 -3.22569 15668 ft 396 kts 359°
2026-05-04 14:48 52.11867 -3.22364 16236 ft 399 kts 359°
2026-05-04 14:49 52.14429 -3.22169 16785 ft 403 kts 359°
2026-05-04 14:49 52.17709 -3.21929 16970 ft 412 kts 359°
2026-05-04 14:49 52.20133 -3.21754 16995 ft 411 kts 359°
2026-05-04 14:49 52.22836 -3.21561 17000 ft 412 kts 359°
2026-05-04 14:50 52.25709 -3.21356 17000 ft 413 kts 359°
2026-05-04 14:50 52.28597 -3.21153 17000 ft 413 kts 359°
2026-05-04 14:50 52.31285 -3.20964 17000 ft 413 kts 359°
2026-05-04 14:50 52.34173 -3.20762 17000 ft 414 kts 359°
2026-05-04 14:51 52.37047 -3.20563 17000 ft 414 kts 359°
2026-05-04 14:51 52.39490 -3.20393 17000 ft 414 kts 359°
2026-05-04 14:51 52.42371 -3.20194 17000 ft 414 kts 359°
2026-05-04 14:51 52.43364 -3.20126 17000 ft 414 kts 359°
2026-05-04 14:52 52.44962 -3.20015 17000 ft 414 kts 359°
2026-05-04 14:52 52.47155 -3.19864 17000 ft 414 kts 359°
2026-05-04 14:52 52.49923 -3.19674 17000 ft 414 kts 359°
2026-05-04 14:52 52.52842 -3.19473 17000 ft 414 kts 359°
2026-05-04 14:53 52.55751 -3.19273 17000 ft 414 kts 359°
2026-05-04 14:53 52.58597 -3.19077 17000 ft 414 kts 359°
2026-05-04 14:53 52.61555 -3.18874 17000 ft 414 kts 359°
2026-05-04 14:53 52.64495 -3.18671 17000 ft 414 kts 359°
2026-05-04 14:54 52.66198 -3.18554 17000 ft 414 kts 359°
2026-05-04 14:54 52.69108 -3.18353 17000 ft 414 kts 359°
2026-05-04 14:54 52.71002 -3.18223 17000 ft 414 kts 359°
2026-05-04 14:54 52.73972 -3.18018 17000 ft 414 kts 359°
2026-05-04 14:55 52.78000 -3.17741 16524 ft 417 kts 359°
2026-05-04 14:55 52.80832 -3.17543 16103 ft 409 kts 359°
2026-05-04 14:55 52.83664 -3.17343 15680 ft 403 kts 359°
2026-05-04 14:55 52.85553 -3.17209 15393 ft 400 kts 359°
2026-05-04 14:56 52.88329 -3.17012 14968 ft 395 kts 359°
2026-05-04 14:56 52.91347 -3.16799 14501 ft 391 kts 359°
2026-05-04 14:56 52.94160 -3.16602 14062 ft 388 kts 359°
2026-05-04 14:56 52.96753 -3.16421 13654 ft 385 kts 359°
2026-05-04 14:57 52.98671 -3.16287 13351 ft 383 kts 359°
2026-05-04 14:57 53.01437 -3.16094 12910 ft 380 kts 359°
2026-05-04 14:57 53.04132 -3.15906 12479 ft 378 kts 359°
2026-05-04 14:57 53.06753 -3.15724 12056 ft 375 kts 359°
2026-05-04 14:58 53.09013 -3.15566 11690 ft 373 kts 359°
2026-05-04 14:58 53.10832 -3.15439 11393 ft 372 kts 359°
2026-05-04 14:58 53.13412 -3.15259 10971 ft 369 kts 359°
2026-05-04 14:58 53.15980 -3.15079 10548 ft 367 kts 359°
2026-05-04 14:59 53.18104 -3.14930 10202 ft 365 kts 359°
2026-05-04 14:59 53.20620 -3.14752 10073 ft 359 kts 359°
2026-05-04 14:59 53.26143 -3.14364 10004 ft 358 kts 359°
2026-05-04 15:00 53.28681 -3.14186 10001 ft 358 kts 359°
2026-05-04 15:00 53.31167 -3.14013 10000 ft 359 kts 359°
2026-05-04 15:00 53.33695 -3.13835 10000 ft 359 kts 359°
2026-05-04 15:01 53.38701 -3.13416 9993 ft 361 kts
2026-05-04 15:01 53.41067 -3.12034 10008 ft 365 kts 27°
2026-05-04 15:01 53.42409 -3.10191 10011 ft 355 kts 43°
2026-05-04 15:01 53.43982 -3.06607 10001 ft 334 kts 57°
2026-05-04 15:02 53.45005 -3.03252 9996 ft 321 kts 63°
2026-05-04 15:02 53.45705 -3.00552 9694 ft 321 kts 65°
2026-05-04 15:02 53.46218 -2.98459 9452 ft 319 kts 66°
2026-05-04 15:02 53.47053 -2.95012 9038 ft 314 kts 66°
2026-05-04 15:03 53.47899 -2.91616 8623 ft 309 kts 65°
2026-05-04 15:03 53.48745 -2.88374 8218 ft 304 kts 64°
2026-05-04 15:03 53.49585 -2.85131 7810 ft 301 kts 65°
2026-05-04 15:03 53.50320 -2.82276 7446 ft 298 kts 65°
2026-05-04 15:04 53.51139 -2.79105 7146 ft 292 kts 65°
2026-05-04 15:04 53.51829 -2.76429 7047 ft 286 kts 65°
2026-05-04 15:04 53.52290 -2.74643 7023 ft 284 kts 65°
2026-05-04 15:04 53.53079 -2.71583 7006 ft 283 kts 65°
2026-05-04 15:05 53.53856 -2.68566 7002 ft 285 kts 65°
2026-05-04 15:05 53.54644 -2.65435 6998 ft 287 kts 68°
2026-05-04 15:05 53.54978 -2.63283 6970 ft 290 kts 77°
2026-05-04 15:05 53.55301 -2.59136 6474 ft 300 kts 84°
2026-05-04 15:06 53.55451 -2.55633 6066 ft 299 kts 85°
2026-05-04 15:06 53.55552 -2.52200 5662 ft 295 kts 86°
2026-05-04 15:06 53.55624 -2.48918 5269 ft 290 kts 86°
2026-05-04 15:07 53.55731 -2.42532 5022 ft 270 kts 87°
2026-05-04 15:07 53.55778 -2.39387 5004 ft 268 kts 87°
2026-05-04 15:07 53.55824 -2.36251 5001 ft 268 kts 87°
2026-05-04 15:07 53.55869 -2.33112 5001 ft 269 kts 87°
2026-05-04 15:08 53.55908 -2.30448 4999 ft 267 kts 87°
2026-05-04 15:08 53.55954 -2.27224 4612 ft 269 kts 87°
2026-05-04 15:08 53.56001 -2.24077 4208 ft 267 kts 87°
2026-05-04 15:08 53.56053 -2.21020 4070 ft 255 kts 87°
2026-05-04 15:09 53.56105 -2.18125 4012 ft 231 kts 87°
2026-05-04 15:09 53.56143 -2.15985 3995 ft 218 kts 87°
2026-05-04 15:09 53.56188 -2.13487 4005 ft 209 kts 87°
2026-05-04 15:10 53.56273 -2.08643 4000 ft 208 kts 87°
2026-05-04 15:10 53.56159 -2.06220 3974 ft 211 kts 108°
2026-05-04 15:10 53.53826 -2.03507 3424 ft 223 kts 169°
2026-05-04 15:11 53.52777 -2.03288 3319 ft 212 kts 174°
2026-05-04 15:11 53.51527 -2.03135 3224 ft 201 kts 176°
2026-05-04 15:11 53.50164 -2.03010 3196 ft 192 kts 177°
2026-05-04 15:11 53.48846 -2.02970 3182 ft 188 kts 186°
2026-05-04 15:12 53.47601 -2.03557 3225 ft 181 kts 201°
2026-05-04 15:12 53.46596 -2.04478 3202 ft 179 kts 214°
2026-05-04 15:12 53.45623 -2.05853 3197 ft 179 kts 225°
2026-05-04 15:12 53.44811 -2.07404 3103 ft 181 kts 231°
2026-05-04 15:13 53.44257 -2.08635 2999 ft 175 kts 234°
2026-05-04 15:13 53.43821 -2.09654 2883 ft 172 kts 234°
2026-05-04 15:13 53.43113 -2.11306 2597 ft 172 kts 234°
2026-05-04 15:13 53.42395 -2.12904 2291 ft 170 kts 232°
2026-05-04 15:14 53.41679 -2.14428 2004 ft 167 kts 231°
2026-05-04 15:14 53.41199 -2.15427 1831 ft 165 kts 231°
2026-05-04 15:14 53.40374 -2.17135 1567 ft 162 kts 231°
2026-05-04 15:14 53.39783 -2.18357 1394 ft 160 kts 231°
2026-05-04 15:15 53.39083 -2.19811 1196 ft 160 kts 231°
2026-05-04 15:15 53.38612 -2.20788 1061 ft 160 kts 231°
2026-05-04 15:15 53.37917 -2.22230 862 ft 160 kts 231°
2026-05-04 15:16 53.36512 -2.25143 376 ft 154 kts 231°
2026-05-04 15:16 53.35987 -2.26226 265 ft 136 kts 231°
2026-05-04 15:16 53.35478 -2.27291 265 ft 34 kts 231°
2026-05-04 15:17 53.35418 -2.27519 264 ft 5 kts 311°
2026-05-04 15:17 53.35462 -2.27578 264 ft 15 kts 333°
2026-05-04 15:17 53.35521 -2.27569 264 ft 0 kts 51°
2026-05-04 15:18 53.35522 -2.27569 264 ft 0 kts 51°
2026-05-04 15:18 53.35522 -2.27568 264 ft 0 kts 51°
2026-05-04 15:19 53.35522 -2.27567 264 ft 0 kts 51°
2026-05-04 15:21 53.35523 -2.27567 264 ft 0 kts 51°
2026-05-04 15:21 53.35523 -2.27566 264 ft 0 kts 51°
2026-05-04 15:22 53.35614 -2.27377 264 ft 12 kts 51°
2026-05-04 15:23 53.35704 -2.27186 265 ft 22 kts 53°
2026-05-04 15:23 53.35788 -2.26996 265 ft 22 kts 53°
2026-05-04 15:23 53.35870 -2.26814 265 ft 18 kts 53°
2026-05-04 15:23 53.35931 -2.26679 265 ft 19 kts 48°
2026-05-04 15:24 53.36091 -2.26778 265 ft 11 kts 321°
2026-05-04 15:24 53.36095 -2.26784 264 ft 0 kts 322°
2026-05-04 15:25 53.36096 -2.26784 264 ft 0 kts 322°
2026-05-04 15:32 53.36096 -2.26785 264 ft 0 kts 322°
2026-05-04 15:34 53.36097 -2.26785 264 ft 0 kts 322°
2026-05-04 15:34 53.36097 -2.26786 264 ft 0 kts 322°
2026-05-04 15:36 53.36098 -2.26787 264 ft 0 kts 322°
2026-05-04 15:38 53.36098 -2.26788 264 ft 0 kts 322°
2026-05-04 15:38 53.36099 -2.26788 264 ft 0 kts 322°
2026-05-04 15:40 53.36099 -2.26789 264 ft 0 kts 322°
2026-05-04 15:40 53.36100 -2.26789 264 ft 0 kts 322°
2026-05-04 15:41 53.36100 -2.26790 264 ft 0 kts 322°
2026-05-04 15:43 53.36101 -2.26790 264 ft 0 kts 322°